Погода в Великой Благовещенке

Украина / Херсонская область     46°52′01″N   34°03′51″E
темп.,
°C
ветер,
м/с
пор.,
м/с
влажн.,
%
обл.,
%
осадки,
мм/ч
давл.,
гПа
погр.,
м
17 апреля, сб
сб1700:00+5юз38845 0.0 1019186
03:00+4юз38925 0.0 1020171
06:00+4ююз36955 0.0 1020132
09:00+10юз56680 0.0 1021688
12:00+14зюз564312 0.0 10211867
15:00+15юз554082 0.0 10202122
18:00+14юз444244 0.0 10201376
21:00+8ю48695 0.0 1021145
18 апреля, вс
вс1800:00+6ю226964 0.0 102014
03:00+6в227486 0.0 102023
06:00+6в247377 0.0 101986
09:00+10вюв455193 0.0 1019494
12:00+14вюв44467 0.0 10181372
15:00+16юв435062 0.0 10161731
18:00+13юв5567100 0.0 1016698
21:00+10вюв3686100 0.0 1017242
19 апреля, пн
пн1900:00+9юв2488100 0.1 1017260
03:00+9ссв2390100 0.2 1016147
06:00+9всв1392100 0.3 1016139
09:00+10всв3587100 0.4 1015313
12:00+11всв3577100 0.0 1015462
15:00+15всв3463100 0.0 10131154
18:00+14в4673100 0.0 1011706
21:00+11вюв4886100 0.1 1009357
20 апреля, вт
вт2000:00+10в51095100 1.1 1006413
03:00+10в51297100 3.8 1002582
06:00+10юв4898100 7.6 999311
09:00+11ююз81288100 7.9 997915
12:00+12ююз9147596 0.1 9971382
15:00+10ю111586100 0.4 9951141
18:00+10зюз71286100 0.1 997868
21:00+8з101587100 0.4 10051198
21 апреля, ср
ср2100:00+7юз71583100 0.1 1010525
03:00+7зюз5128286 0.1 1012384
06:00+6юз3692100 0.0 1014110
09:00+12юз466698 0.0 1015472
12:00+13ююз456330 0.4 1016948
15:00+16юз884981 1.4 10161974
18:00+14юз7106412 0.1 10171191
21:00+10ююз513865 0.3 1019383